Satellite-Ground Cal/Val Region Overpasses Predictions

Prediction of Satellite NPP Overpassing Cal/Val Region: PacNW

Region Location: (Latitude: 10.00, Longitude: 139.50) to (Latitude: 22.70, Longitude: 165.60).

Table of predicted overpasses for the next 14.0 days since TLE Epoch: 6/23/2014
Interval Starting Time Starting Location Ending Time Ending Location
1 06/23/2014 15:05:15 ( 22.68, 160.23) 06/23/2014 15:08:51 ( 10.00, 157.20)
2 06/24/2014 02:16:55 ( 19.06, 165.59) 06/24/2014 02:17:56 ( 22.64, 164.70)
3 06/24/2014 03:55:51 ( 10.02, 142.34) 06/24/2014 03:59:14 ( 21.94, 139.50)
4 06/24/2014 14:46:15 ( 22.66, 164.98) 06/24/2014 14:49:50 ( 10.04, 161.97)
5 06/24/2014 16:27:45 ( 22.65, 139.61) 06/24/2014 16:27:52 ( 22.24, 139.51)
6 06/25/2014 03:36:51 ( 10.05, 147.10) 06/25/2014 03:40:26 ( 22.67, 144.08)
7 06/25/2014 16:08:43 ( 22.69, 144.38) 06/25/2014 16:12:19 ( 10.01, 141.35)
8 06/26/2014 03:17:49 ( 10.01, 151.87) 06/26/2014 03:21:25 ( 22.69, 148.83)
9 06/26/2014 15:49:43 ( 22.67, 149.13) 06/26/2014 15:53:18 ( 10.05, 146.12)
10 06/27/2014 02:58:49 ( 10.04, 156.62) 06/27/2014 03:02:24 ( 22.66, 153.60)
11 06/27/2014 15:30:41 ( 22.70, 153.90) 06/27/2014 15:34:17 ( 10.02, 150.87)
12 06/28/2014 02:39:47 ( 10.00, 161.39) 06/28/2014 02:43:23 ( 22.68, 158.36)
13 06/28/2014 15:11:41 ( 22.68, 158.66) 06/28/2014 15:15:16 ( 10.06, 155.64)
14 06/29/2014 02:21:28 ( 12.44, 165.59) 06/29/2014 02:24:22 ( 22.65, 163.13)
15 06/29/2014 04:02:17 ( 10.03, 140.77) 06/29/2014 04:03:49 ( 15.43, 139.51)
16 06/29/2014 14:52:40 ( 22.65, 163.41) 06/29/2014 14:56:15 ( 10.03, 160.39)
17 06/30/2014 03:43:16 ( 10.05, 145.52) 06/30/2014 03:46:51 ( 22.68, 142.51)
18 06/30/2014 14:36:42 ( 11.95, 165.60) 06/30/2014 14:37:15 ( 10.01, 165.15)
19 06/30/2014 16:15:09 ( 22.68, 142.80) 06/30/2014 16:18:45 ( 10.01, 139.77)
20 07/01/2014 03:24:15 ( 10.02, 150.29) 07/01/2014 03:27:50 ( 22.64, 147.27)
21 07/01/2014 15:56:09 ( 22.66, 147.56) 07/01/2014 15:59:44 ( 10.04, 144.54)
22 07/02/2014 03:05:14 ( 10.05, 155.04) 07/02/2014 03:08:49 ( 22.67, 152.03)
23
